{"data":{"norad_id":53504,"intl_designator":"2022-099AR","name":"STARLINK-4448","alt_names":[],"object_type":"PAYLOAD","status":"ACTIVE","operator":null,"country":"US","launch_date":"2022-08-12","launch_site_code":"AFWTR","launch_vehicle":null,"mission":null,"orbit_class":"UNKNOWN","rcs_meters":null,"size_class":null,"mass_kg":null,"dimensions":null,"purposes":["comms"],"wikipedia_slug":null,"has_3d_model":false,"image_url":null,"decayed_at":null,"tle_current":{"epoch":"2026-05-25T04:00:03.998880Z","epoch_age_seconds":54628,"freshness":"FRESH","line1":"1 53504U 22099AR  26145.16671295  .00722788  00000+0  14534-1 0  9995","line2":"2 53504  97.6026 267.2238 0001467  97.7792  88.2571 15.44257038  5823","mean_motion":15.44257038,"eccentricity":0.0001467,"inclination_deg":97.6026,"raan_deg":267.2238,"arg_perigee_deg":97.7792,"mean_anomaly_deg":88.2571,"bstar":0.014534,"rev_number":582,"period_min":93.248725086918,"perigee_km":432.56271788728,"apogee_km":434.56127037216,"semimajor_km":6811.6989941297,"source":"CELESTRAK","updated_at":"2026-05-25T13:38:17.437774Z"}}}